Regional Weather Roundup
Issued by NWS Jackson, KY

Home | Current Version | Previous Version | Text Only | Print | Product List | Glossary Off
Versions: 1 2 3 4 5 6 7 8 9 10 11 12 13 14 15 16 17 18 19 20 21 22 23 24 25 26 27 28 29 30 31 32 33 34 35 36 37 38 39 40 41 42 43 44 45 46 47 48 49 50

000
ASUS43 KJKL 180410
RWRJKL

EAST KENTUCKY HOURLY WEATHER ROUNDUP
NATIONAL WEATHER SERVICE JACKSON KY
1100 PM EST TUE JAN 17 2017

NOTE: "FAIR" INDICATES FEW OR NO CLOUDS BELOW 12,000 FEET WITH
NO SIGNIFICANT WEATHER AND/OR OBSTRUCTIONS TO VISIBILITY.

* THESE REPORTS ARE NOT UNDER NWS QUALITY CONTROL AND MAY NOT
  REPORT WEATHER SUCH AS PRECIPITATION AND FOG.

KYZ079-080-083-085-087-088-110-112-115-119-120-180500
...EASTERN KENTUCKY...

CITY           SKY/WX    TMP DP  RH WIND       PRES   REMARKS
JACKSON        CLOUDY    54  44  69 W8        30.03R
LONDON         CLOUDY    54  48  80 W10       30.07R
SOMERSET*      CLOUDY    52  45  76 W8        30.10R
MONTICELLO*    CLOUDY    53  47  79 W18       30.12
WILLIAMSBURG*  CLOUDY    55  54  94 W6        30.07S
MIDDLESBORO*   DRIZZLE   59  57  93 W6        30.06R
HARLAN APT*    CLOUDY    55  52  88 SW10G18   30.05S
PIKE CO APT*   CLOUDY    57  49  73 SW8       30.01S
BIG SANDY APT* PTCLDY    56  46  69 NW9G17    30.02R
MOREHEAD APT*  CLOUDY    48  41  76 W9G20     30.07R
ASHLAND*       CLOUDY    52  43  71 W15G22    30.01R
$$

KYZ035-036-041-042-044-050-067-078-099-180500
...CENTRAL KENTUCKY...

CITY           SKY/WX    TMP DP  RH WIND       PRES   REMARKS
MT STERLING*   CLOUDY    46  43  87 NW12G18   30.08R
FLEMING/MASON* CLOUDY    46  40  81 W16G23    30.07R
DANVILLE*      CLOUDY    46  43  87 NW6       30.10R
LEXINGTON      CLOUDY    48  40  73 W15       30.08R
FRANKFORT      CLOUDY    47  39  74 W9        30.08R
LOUISVILLE     CLOUDY    45  38  76 W13       30.11R
LEBANON*       CLOUDY    46  41  81 W15G21    30.11R
GLASGOW*       CLOUDY    48  42  79 W10       30.13R
BOWLING GREEN  CLOUDY    49  41  74 W10       30.15R
$$

KYZ091>093-OHZ055-061-077-WVZ005-015-034-035-042-180500
...SOUTHERN OHIO/WEST VIRGINIA...

CITY           SKY/WX    TMP DP  RH WIND       PRES   REMARKS
COVINGTON      DRIZZLE   44  42  93 W10       30.05R
COLUMBUS       CLOUDY    48  41  76 W14       29.98R
DAYTON         DRIZZLE   43  41  93 W9        30.01S
WILMINGTON     CLOUDY    45  41  86 W14       30.01R
HUNTINGTON     CLOUDY    55  46  71 W10G17    30.01R
CHARLESTON     CLOUDY    59  48  67 W9G17     29.98R
BECKLEY        CLOUDY    55  51  86 W10       29.99S
BLUEFIELD      LGT RAIN  55  54  96 NW9       30.01R
LOGAN CO APT*    N/A     57  50  77 W10       29.99R
$$

VAZ002-007-008-TNZ017-027-036-066-071-180500
...SOUTHWEST VIRGINIA/EAST TENNESSEE...

CITY           SKY/WX    TMP DP  RH WIND       PRES   REMARKS
WISE*          DRIZZLE   55  55 100 W8G18     30.05R
JONESVILLE*    CLOUDY    59  57  94 NW7       30.05S
ABINGDON*      LGT RAIN  61  60  97 W13       30.02F
BRISTOL        CLOUDY    62  57  83 SW14      30.02F
MORRISTOWN*    CLOUDY    64  59  82 W13       30.03S
SEVIERVILLE*   CLOUDY    66  55  68 SW13      30.03S
KNOXVILLE      CLOUDY    65  58  78 SW20G25   30.05R
LAFOLLETTE*    CLOUDY    59  55  88 VRB3G16   30.09R
OAK RIDGE      CLOUDY    63  60  90 VRB5      30.06S
CROSSVILLE     CLOUDY    53  51  93 W16G24    30.11R
NASHVILLE      CLOUDY    53  46  77 W8        30.16R
$$

...KEY TO REMARKS...
VSB - VISIBILITY IN MILES
WCI - WIND CHILL INDEX
HX  - HEAT INDEX

$$



USA.gov is the U.S. government's official web portal to all federal, state and local government web resources and services.